Home > Weather > Hoshiarpur > Past weeks

Flag for India Past Weather in Hoshiarpur, Punjab, India — Yesterday and Last 2 Weeks

Now
90 °F

Fog.


Feels Like: 111 °F
Forecast: 83 / 97 °F
Wind: No wind

Location: Amritsar Airport

Current Time: Jul 25, 2016 at 9:30:23 PM

Latest Report: Jul 25, 2016 at 8:00 PM


Visibility: 3 mi

Pressure: 29.56 "Hg

Humidity: 79%

Dew Point: 82 °F

Location of HoshiarpurLocation

Past Weather in Hoshiarpur — Graph

°F

Hoshiarpur Temperature Yesterday

Maximum temperature yesterday: 93 °F (at 2:30 PM)
Minimum temperature yesterday: 81 °F (at 3:30 AM)
Average temperature yesterday: 87 °F

High & Low Weather Summary for the Past Weeks

 TemperatureHumidityPressure
High99 °F (Jul 21, 1:00 PM)100% (Jul 11, 6:30 AM)29.71 "Hg (Jul 11, 6:30 AM)
Low73 °F (Jul 17, 5:00 AM)50% (Jul 21, 3:30 PM)29.36 "Hg (Jul 10, 7:30 PM)
Average87 °F87%29.53 "Hg
* Reported Jul 10 7:30 PM — Jul 25 8:00 PM, Hoshiarpur, Weather by CustomWeather, © 2016

Note: Actual official high and low records may vary slightly from our data, if they occured in-between our weather recording intervals... More about our weather records

Advertising

Hoshiarpur Weather History for the Previous 24 Hours

Scroll right to see more
 ConditionsComfort  
Time TempWeatherWind HumidityBarometerVisibility
8:00 PM
Mon, Jul 25
90 °FFog.No wind79%29.56 "Hg3 mi
7:30 PM88 °FFog.2 mph84%29.53 "Hg3 mi
6:30 PM90 °FHaze.2 mph75%29.56 "Hg3 mi
6:00 PM91 °FHaze.2 mph67%29.56 "Hg3 mi
5:30 PM91 °FScattered clouds.3 mph71%29.56 "Hg3 mi
5:00 PM91 °FScattered clouds.5 mph67%29.56 "Hg3 mi
4:30 PM93 °FScattered clouds.2 mph71%29.56 "Hg3 mi
4:00 PM91 °FFog.2 mph75%29.59 "Hg3 mi
3:30 PM90 °FFog.3 mph84%29.59 "Hg3 mi
2:30 PM90 °FFog.3 mph89%29.62 "Hg2 mi
2:00 PM88 °FFog.6 mph89%29.62 "Hg2 mi
1:30 PM84 °FFog.6 mph100%29.65 "Hg2 mi
1:00 PM82 °FThunderstorms. Broken clouds.2 mph100%29.62 "Hg2 mi
12:00 PM84 °FThundershowers. Broken clouds.14 mph89%29.71 "Hg2 mi
11:30 AM90 °FFog.9 mph89%29.68 "Hg2 mi
10:59 AM88 °FFog.10 mph94%29.68 "Hg2 mi
10:30 AM90 °FFog.8 mph94%29.68 "Hg3 mi
10:00 AM91 °FFog.No wind75%29.65 "Hg2 mi
9:30 AM91 °FFog.2 mph75%29.65 "Hg2 mi
9:00 AM90 °FFog.No wind84%29.65 "Hg2 mi
8:30 AM88 °FFog.3 mph100%29.65 "Hg2 mi
8:00 AM86 °FFog.1 mph100%29.65 "Hg2 mi
7:30 AM86 °FFog.2 mph100%29.65 "Hg2 mi
6:30 AM84 °FFog.No wind100%29.62 "Hg2 mi
6:00 AM84 °FFog.No wind100%29.62 "Hg2 mi
5:30 AM84 °FFog.No wind100%29.62 "Hg2 mi
5:00 AM84 °FFog.No wind100%29.62 "Hg2 mi
4:00 AM84 °FFog.No wind100%29.59 "Hg2 mi
3:00 AM84 °FFog.No wind100%29.62 "Hg2 mi
2:30 AM84 °FFog.No wind100%29.62 "Hg2 mi
2:00 AM86 °FFog.No wind100%29.62 "Hg2 mi
1:30 AM86 °FFog.No wind100%29.62 "Hg2 mi
1:00 AM86 °FFog.No wind100%29.62 "Hg2 mi
12:30 AM86 °FFog.No wind100%29.59 "Hg2 mi
12:00 AM86 °FFog.No wind100%29.59 "Hg2 mi
11:30 PM
Sun, Jul 24
86 °FFog.No wind100%29.59 "Hg2 mi
11:00 PM86 °FFog.No wind100%29.59 "Hg2 mi
10:30 PM88 °FFog.No wind94%29.59 "Hg2 mi
10:00 PM88 °FFog.2 mph94%29.59 "Hg2 mi
9:30 PM88 °FFog.No wind94%29.59 "Hg2 mi
9:00 PM88 °FFog.No wind94%29.56 "Hg2 mi
Weather by CustomWeather, © 2016

See weather overviewHow to use our weather pages